Location: Valencia
(39.4670°N, 0.3670°W)
Time: 18:18:02
(UTC+02:00)

ISS - Pass Details

Date: 12 August 2017
Orbit: 401 x 408 km, 51.6° (Epoch: 19 August)

Event Time Altitude Azimuth Distance (km) Brightness Sun altitude
Rises 21:59:11 0° 303° (WNW) 2,315 2.3 -11.0°
Reaches altitude 10° 22:01:18 10° 297° (WNW) 1,452 0.6 -11.4°
Maximum altitude 22:04:26 46° 223° (SW) 548 -3.1 -11.9°
Enters shadow 22:06:39 17° 154° (SSE) 1,093 -2.1 -12.3°
